{"data":{"norad_id":55784,"epoch":"2026-05-25T04:00:03.998880Z","epoch_age_seconds":60343,"freshness":"FRESH","line1":"1 55784U 23028AV  26145.16671295 -.00016677  00000+0 -13927-2 0  9991","line2":"2 55784  70.0013  11.7121 0002495 276.3393 302.5781 14.98344769  5802","mean_motion":14.98344769,"eccentricity":0.0002495,"inclination_deg":70.0013,"raan_deg":11.7121,"arg_perigee_deg":276.3393,"mean_anomaly_deg":302.5781,"bstar":-0.0013927,"rev_number":580,"period_min":96.10605181083,"perigee_km":570.27615767413,"apogee_km":573.74428113661,"semimajor_km":6950.1472194054,"source":"CELESTRAK","updated_at":"2026-05-25T13:38:17.886731Z"}}